Total_Precipitation_Accumulation
1.01 1.15 1.21 1.38 1.65 1.82 1.82 1.62 1.16 0.81 0.76 0.95 1.29 2.75 3.82 3.41 1.51 0.97 0.64 0.73 0.66 0.82 1.15 0.93 0.49 0.48 0.61 0.49 0.67 0.98 1.16 0.67 0.14 0.04 0.03 0.03 0.02 0.02 0.02 0.04 0.09 0.16 0.19 0.19 0.58
1.25 1.43 1.88 2.19 2.27 2.26 1.93 1.66 1.00 0.71 0.71 0.84 1.38 2.67 4.07 2.93 1.32 0.86 1.01 1.44 1.23 1.48 1.29 1.21 0.60 0.76 0.77 0.71 1.04 1.52 1.36 0.40 0.09 0.07 0.04 0.07 0.03 0.01 0.03 0.04 0.57 0.63 0.34 0.56 0.67
1.34 1.56 1.86 2.77 3.42 3.88 3.27 1.59 0.82 0.63 0.63 0.79 1.21 3.27 4.04 2.42 1.46 0.58 0.77 1.30 1.64 1.65 1.20 0.95 0.81 1.19 0.83 0.84 0.83 1.18 1.12 0.29 0.29 0.26 0.26 0.16 0.07 0.02 0.06 0.06 0.19 1.70 0.96 0.84 0.84
1.16 1.39 1.71 1.67 2.56 3.09 2.58 1.28 1.13 0.79 0.62 0.79 1.64 3.65 3.54 1.77 0.83 0.30 0.84 1.03 1.41 1.76 1.31 1.60 1.32 1.50 0.82 0.53 0.47 0.65 0.64 0.44 0.47 0.47 0.48 0.19 0.13 0.09 0.15 0.09 0.14 0.52 1.32 1.43 1.29
1.03 1.18 1.27 1.65 2.16 2.39 1.74 1.38 1.29 1.14 0.99 1.09 2.09 3.61 2.66 1.77 0.60 0.44 0.83 0.66 1.15 1.64 1.04 1.48 1.38 1.22 0.72 0.36 0.52 0.53 0.61 0.58 0.72 0.62 0.47 0.33 0.21 0.13 0.11 0.12 0.14 0.55 0.83 1.32 1.84
0.92 0.88 0.90 1.16 1.45 1.62 1.38 1.31 1.27 1.08 1.08 1.36 2.35 2.94 1.98 1.36 0.54 0.58 0.60 0.71 0.85 1.10 0.94 1.32 1.25 1.20 0.75 0.49 0.55 0.34 0.59 0.77 1.01 0.80 0.86 0.47 0.25 0.19 0.07 0.12 0.30 0.76 1.66 0.92 1.30
0.86 0.84 0.75 1.05 1.27 1.34 1.29 1.23 1.13 0.93 1.13 1.51 2.08 2.18 1.78 1.21 0.80 0.84 0.41 0.80 1.16 0.87 0.98 1.04 1.16 1.60 1.15 0.66 0.41 0.48 0.89 1.14 1.16 1.26 1.23 0.89 0.72 0.22 0.05 0.13 0.51 1.02 1.72 2.31 1.30
0.90 0.78 0.71 0.89 0.93 0.94 0.90 0.84 0.91 1.10 1.39 1.91 2.42 1.87 2.11 1.19 0.76 0.55 0.29 0.47 0.86 1.13 1.13 1.24 0.95 1.47 1.32 0.97 0.73 0.94 1.37 1.31 1.00 1.35 1.98 1.61 0.82 0.19 0.10 0.18 0.39 0.78 1.19 1.55 2.76
0.93 0.91 0.97 1.05 0.98 1.01 1.05 1.09 0.99 0.94 1.44 2.16 2.23 1.87 2.15 1.49 0.73 0.30 0.30 0.45 0.80 1.60 2.04 2.19 2.04 1.70 1.25 1.51 1.58 1.36 0.97 1.00 0.83 0.83 2.03 1.84 1.03 0.40 0.22 0.16 0.22 0.45 0.88 1.55 2.10
1.10 1.36 1.30 0.98 1.10 1.16 1.13 1.98 2.01 1.02 1.62 2.04 1.86 1.83 1.77 1.36 0.56 0.31 0.35 0.58 1.03 2.09 2.91 3.17 3.29 2.08 1.06 1.63 1.76 1.53 0.87 0.54 0.81 0.71 1.28 1.69 1.01 0.72 0.41 0.26 0.16 0.35 0.62 0.99 1.84
1.18 1.20 0.97 0.94 0.93 0.82 1.02 1.78 1.96 2.11 2.32 1.89 1.05 0.81 0.94 0.94 0.58 0.55 0.54 0.77 1.68 2.54 2.72 2.89 2.80 1.96 0.63 0.51 0.70 0.54 0.85 0.59 0.62 0.80 0.69 1.00 0.92 0.75 0.52 0.54 0.23 0.30 0.38 0.63 1.16
0.94 0.88 0.83 0.88 1.00 1.19 1.33 1.58 1.30 1.76 2.67 1.85 0.79 0.62 0.64 0.58 0.87 0.72 0.85 1.49 1.82 2.25 2.13 2.64 2.21 1.09 0.84 0.57 0.62 0.80 0.97 0.80 0.67 0.82 0.72 0.66 0.72 0.53 0.51 0.38 0.32 0.27 0.49 0.53 0.79
0.81 0.77 0.80 0.95 1.03 1.40 1.30 1.01 1.01 1.12 2.07 2.29 1.33 1.07 0.85 0.58 0.95 0.80 1.15 1.55 1.64 1.55 1.30 1.61 1.04 0.69 1.11 1.03 1.19 0.89 0.81 0.56 0.76 0.71 0.62 0.58 0.76 0.58 0.42 0.29 0.19 0.17 0.41 0.66 0.63
0.90 0.96 1.04 1.17 1.35 1.02 1.27 0.94 0.83 1.14 1.81 2.03 1.25 1.16 0.65 1.08 1.31 0.60 1.66 1.65 1.75 1.42 1.09 1.33 0.77 0.93 1.26 1.63 1.07 0.98 0.39 0.43 0.90 1.19 1.22 0.75 1.01 0.61 0.44 0.32 0.23 0.21 0.23 0.54 0.92
1.29 1.09 0.93 1.28 1.31 1.16 0.86 0.64 0.87 1.53 1.89 1.43 1.07 0.75 0.90 0.93 0.75 0.80 1.30 1.36 1.34 1.22 1.41 1.22 0.86 0.96 0.88 1.21 1.11 1.34 0.41 0.44 0.80 1.44 1.94 0.86 1.32 0.72 0.50 0.56 0.51 0.43 0.37 0.48 0.69
1.25 1.18 1.07 1.05 0.98 0.98 0.84 0.61 1.29 1.72 2.28 2.04 1.51 1.31 0.79 0.56 0.58 1.02 1.35 1.02 1.08 1.16 1.24 0.96 0.79 1.17 0.99 0.80 0.95 0.99 1.05 0.95 1.26 2.11 3.21 0.96 1.22 1.31 1.09 1.16 0.98 0.46 0.45 0.60 0.69
1.21 1.41 1.31 0.79 0.89 0.85 1.31 1.13 1.55 1.33 1.25 1.48 1.17 0.58 0.42 0.54 0.87 1.24 1.37 0.94 1.35 1.87 1.77 1.53 1.36 1.10 0.83 1.15 1.36 1.10 1.68 2.78 3.07 3.45 2.13 0.78 1.24 1.55 1.21 0.94 0.91 0.66 0.74 0.89 0.89
1.42 1.45 1.47 1.01 0.94 0.99 1.80 1.29 1.25 0.93 1.00 0.83 0.41 0.40 0.51 0.40 0.59 0.80 1.09 0.75 0.53 0.74 1.18 1.37 1.84 1.62 1.10 1.28 1.63 1.25 1.55 2.42 2.28 1.51 1.27 1.02 2.41 2.62 1.74 1.35 1.17 0.93 1.13 1.47 1.64
1.78 1.97 1.74 1.48 1.20 1.32 1.48 1.23 1.22 1.10 1.01 0.50 0.33 0.39 0.41 0.19 0.30 0.55 0.54 0.44 0.41 0.43 1.22 1.10 1.26 0.91 1.05 0.95 1.20 1.38 1.49 1.46 2.13 1.16 1.10 1.33 1.90 2.38 2.09 1.86 1.25 1.64 1.76 1.83 2.06
2.35 2.66 1.63 1.35 1.47 1.46 1.34 1.16 0.83 0.49 0.30 0.21 0.39 0.23 0.14 0.07 0.14 0.16 0.28 0.15 0.23 0.21 0.42 0.79 1.19 1.21 1.11 0.96 0.97 1.05 1.03 1.55 2.43 2.23 1.48 1.07 1.18 2.87 2.83 2.21 1.97 2.07 1.99 1.99 2.15
2.38 2.51 1.68 1.75 2.08 2.07 1.62 1.22 0.51 0.19 0.16 0.19 0.21 0.16 0.07 0.12 0.21 0.35 0.53 0.39 0.30 0.32 0.40 0.88 1.65 1.32 1.23 1.18 1.07 1.16 1.40 1.18 1.55 1.65 1.54 1.07 2.20 3.09 2.64 2.19 1.78 1.80 1.74 1.72 1.71
2.27 2.08 1.93 2.35 2.58 1.83 1.12 0.81 0.48 0.17 0.18 0.17 0.20 0.15 0.24 0.25 0.31 0.31 0.33 0.43 0.21 0.19 0.48 0.62 1.30 1.20 1.12 0.63 0.56 0.73 0.89 0.93 1.89 1.46 1.11 1.21 1.94 2.09 2.03 1.78 1.49 1.24 1.02 0.85 0.73
2.22 1.96 2.78 1.58 1.16 0.78 0.49 0.45 0.31 0.13 0.18 0.28 0.28 0.22 0.24 0.25 0.38 0.31 0.21 0.17 0.07 0.08 0.46 0.78 1.48 1.14 0.96 0.74 0.78 1.18 0.86 1.02 1.43 1.87 1.49 1.15 1.65 1.00 0.85 0.70 0.73 0.71 0.73 0.70 0.74
2.36 2.22 3.82 2.50 0.64 0.30 0.57 0.59 0.38 0.16 0.21 0.30 0.34 0.21 0.22 0.15 0.18 0.37 0.11 0.09 0.05 0.05 0.31 1.09 1.26 1.17 1.06 1.04 1.25 1.07 0.61 0.94 1.63 1.91 0.83 0.59 0.48 0.46 0.48 0.44 0.55 0.72 0.68 0.64 0.67
2.09 1.23 1.08 1.16 0.61 0.25 0.60 0.64 0.52 0.40 0.29 0.25 0.25 0.13 0.43 0.54 0.22 0.14 0.14 0.16 0.09 0.06 0.30 0.96 1.43 1.33 0.58 0.43 0.81 0.77 0.57 0.73 1.40 0.95 0.97 0.55 0.32 0.32 0.35 0.42 0.52 0.60 0.51 0.44 0.47
1.48 1.18 0.67 0.41 0.20 0.29 0.41 0.51 0.47 0.52 0.56 0.46 0.42 0.25 0.46 0.65 0.60 0.71 0.63 0.52 0.40 0.26 0.34 0.76 1.21 0.88 0.41 0.26 0.44 0.60 0.31 0.48 0.79 0.64 0.62 0.33 0.42 0.34 0.37 0.44 0.48 0.61 0.42 0.33 0.38
1.36 1.19 1.37 0.92 0.40 0.41 0.36 0.44 0.50 0.63 0.57 0.35 0.45 0.66 0.55 0.35 0.42 0.34 0.27 0.20 0.23 0.35 0.41 0.78 0.93 1.18 0.88 0.43 0.67 0.75 0.48 0.54 0.75 0.66 0.46 0.53 0.62 0.31 0.32 0.41 0.60 0.83 0.38 0.26 0.23